Location: Tr�vern
(48.0333°N, 4.6000°W)
Time: 07:08:41
(UTC+00:00)

USA 267 - Pass Details

Date: 14 July 2020
Orbit: 1102 x 1106 km, 123.0° (Epoch: 02 August)

Event Time Altitude Azimuth Distance (km) Brightness Sun altitude
Exits shadow 00:32:11 31° 159° (SSE) 1,820 3.9 -20.3°
Maximum altitude 00:35:16 57° 223° (SW) 1,286 3.3 -20.3°
Drops below altitude 10° 00:41:42 10° 301° (WNW) 2,966 5.8 -20.2°
Sets 00:44:15 0° 306° (NW) 3,927 6.6 -20.2°
